sat.trackr.live / text

‹ back to catalog

TIANHUI 5A

NORAD 58199 · 2023-168A

PAYLOAD ACTIVE UNKNOWN

§ Identity

Operator
Country
PRC
Launch date
2023-10-31
Launch site
TAISC
Launch vehicle
Mass (kg)
RCS (m²)

External: N2YO · Heavens-Above · Gunter

§ Orbital elements

Epoch: 2026-05-24T11:12:02.021184Z

Period
96.80 min
Inclination
97.8214°
Eccentricity
0.0001564
Mean motion
14.87576981 rev/d
Perigee alt
604.4 km
Apogee alt
606.6 km
Semi-major
6,983.6 km
B*
3.6045e-5
RAAN
152.1764°
Arg perigee
90.7189°
Mean anomaly
269.4207°
Rev number
13,907

§ Raw data

TIANHUI 5A1 58199U 23168A   26144.46669006  .00000273  00000+0  36045-4 0  99992 58199  97.8214 152.1764 0001564  90.7189 269.4207 14.87576981139077

JSON: /api/v1/satellites/58199 · /tle

For live sub-satellite position, see the globe view (requires WebGL).

§ Visibility from observer

Set your observer location to see the next 7 days of passes ≥ 10°. The values pass through the URL so the page stays shareable.

No JS? Fill the form by hand. The geolocation button needs JavaScript.